STARLINK-32334, 62023

Orbit data source: Space-Track

STARLINK-32334, 62023 is a payload satellite owned by SpaceX/Seattle (US) in LEO that was launched on Mon, 18 Nov 2024 UTC via an FALCON 9 launch vehicle from the Air Force Western Test Range (AFWTR). Payload-class satellites include a variety of spacecraft equipped with specific instruments for various scientific and technological missions. These include communications satellites like Starlink; space stations such as the ISS; scientific satellites like the Hubble; Earth observation satellites from companies like Planet Labs, Umbra, and HawkEye 360; GPS; miniature CubeSats for education and research; and military/defense satellites.

Loading next visibility...
Identifier
62023, 2024-213R
Orbit
LEO
Country
Flag of USUS
Related business
Manufacturer
SpaceX/Seattle
Mission
Operational Commercial Communications
Bus & Motor
STARLINK V2M, Unknown motor
Mass
730 kg wet, ~700 kg dry
Launch date (UTC)
2024-11-18 (11 months ago)
Launch vehicle
FALCON 9
Launch site
Air Force Western Test Range (AFWTR)
Object type
Payload
Rocket body
Debris
Shape & HBR
Box + 2 Pan, 17.7 m
Radar Cross Section
33.884 m², Large (>1 m²)

Expand to show TLE details & history
Last TLE update: 16 hours ago

TLE from 16 hours ago
0 STARLINK-32334
1 62023U 24213R   25289.04825953  .00031573  00000-0  10730-2 0  9999
2 62023  53.1583 119.6771 0000937  86.9390 273.1718 15.30219325 51013
Epoch: 2025-10-16T01:09Z
TLE epoch observation values (Epoch: 2025-10-16T01:09:29.623Z)
Latitude
-0.00001°
Longitude
77.49008°
Altitude
476.021 km
Speed
7.629 km/s
True Right ascension
07h 58m 42s
True Declination
0° 00' 00"
Sunlit
Object was in daylight at epoch
Visualization orbit readout
Latitude
Unknown
Longitude
Unknown
Altitude
Unknown
Speed
Unknown
Apparent Right ascension
Unknown
Apparent Declination
Unknown
Sunlit
N/A
Visualization observer readout
Local Sidereal Time
12:11:24
Azimuth
Unknown
Elevation
Unknown
Doppler factor
Unknown
Orbital elements
Apogee altitude
476.056 km
Perigee altitude
474.772 km
Semi-major axis
6,853.551 km
Eccentricity
0.00009
Inclination
53.1583°
RAAN
119.6771°
Arg. of periapsis
86.939°
True anomaly
273.16108°
Mean anomaly
273.1718°
Eccentric anomaly
273.16644°
Mean motion
3.82534 °/min
Orbital period
94.11 mins
BSTAR
0.001073
Loading maneuver chart data...
Computing Atmospheric mass density...
Loading historical data...
Loading historical data...
Loading historical data...
Loading historical data...
Loading historical data...
Loading historical data...
Loading historical data...

Documentation

Showing up to 5 results
|